{"data":{"norad_id":40977,"intl_designator":"2015-058P","name":"SINOD-D 3","alt_names":[],"object_type":"PAYLOAD","status":"ACTIVE","operator":null,"country":"US","launch_date":"2015-10-08","launch_site_code":"AFWTR","launch_vehicle":null,"mission":null,"orbit_class":"UNKNOWN","rcs_meters":null,"size_class":null,"mass_kg":null,"dimensions":null,"purposes":["tech_demo"],"wikipedia_slug":null,"has_3d_model":false,"image_url":null,"decayed_at":null,"tle_current":{"epoch":"2026-09-20T04:57:27.345600Z","epoch_age_seconds":39650,"freshness":"FRESH","line1":"1 40977U 15058P   26263.20656650  .00001486  00000+0  13132-3 0  9996","line2":"2 40977  64.7724 338.9534 0127244  22.0902 338.5625 14.94582694128958","mean_motion":14.94582694,"eccentricity":0.0127244,"inclination_deg":64.7724,"raan_deg":338.9534,"arg_perigee_deg":22.0902,"mean_anomaly_deg":338.5625,"bstar":0.00013132,"rev_number":12895,"period_min":96.347964269952,"perigee_km":495.08353539314,"apogee_km":672.25312690447,"semimajor_km":6961.8053311488,"source":"CELESTRAK","updated_at":"2026-09-20T09:00:48.030871Z"}}}